Simultaneous Nadir Overpasses (SNOs) Predictions

Prediction of SNOs between GOES-15 and METOP-C Satellite Orbit:

Table of predicted SNOs for the next 14.0 days since TLE Epoch: 8/1/2025
Index Date Time (GOES-15) GOES-15 Lat,Lon METOP-C Lat,Lon Distance(km) Time Diff (sec)
1 08/03/2025 05:33:13 0.10, 61.40 0.43, 59.91 170.20 80
2 08/04/2025 05:09:55 0.06, 61.42 -0.74, 64.88 395.99 80
3 08/05/2025 17:31:36 -0.12, 61.53 -0.37, 60.30 138.89 80
4 08/06/2025 17:08:17 -0.08, 61.54 0.75, 65.30 427.13 80
5 08/08/2025 05:29:50 0.13, 61.49 0.31, 60.74 85.23 80
6 08/09/2025 05:06:32 0.09, 61.51 -0.86, 65.72 480.38 80
7 08/10/2025 17:28:12 -0.15, 61.63 -0.23, 61.14 55.25 80
8 08/13/2025 05:26:26 0.16, 61.59 0.18, 61.57 2.44 80
9 08/15/2025 17:22:08 -0.18, 61.75 -0.14, 61.98 26.39 80
